METEOR 2-7

Satellite information

Favourite Embed

Satellite Type and Status

PAYLOADIN ORBIT

Key statistics

Satellite METEOR 2-7 at a glance.

Uptime

16063

Days in orbit

Revolutions

≈ 14.1

Per day

Orbit

LEO

Low Earth Orbit

Inclination

81.3

Latest

Satellite identification and parameters

Extended collection of information and parameters for METEOR 2-7.

Object identification

Identified? True

Debris? False

Object name: METEOR 2-7

International designator: 1981-043A

Object number (NORAD): 12456

Object ID (CCSDS): 12456

Country: COMMONWEALTH OF INDEPENDENT STATES (CIS)

Current information (Y/N): Y

RCS size: LARGE

Orbital parameters

Period: 102.06 minutes

Inclination: 81.2629 deg

SMA: 7234.323 km

Apoapsis: 890.031 km

Periapsis: 822.345 km

RAAN: 135.3448 deg

Eccentricy: 0.0046781

Argument of periapsis: 205.3709 deg

Mean anomaly: 154.5166 deg

Mean motion: 14.10931552 rev/day

Mean motion (dot): 0.0000015 rev/day2

B* drag term: 0.000076057 1/REarth

Two-line elements (TLE)

Creation date: May 6, 2025, 3:54 a.m.

Reference frame: TEME

Reference center: EARTH

Epoch: May 5, 2025, 5:43 p.m. UTC

TLE line 0: 0 METEOR 2-7

TLE line 1: 1 12456U 81043A 25125.73845919 .00000150 00000-0 76057-4 0 9990

TLE line 2: 2 12456 81.2629 135.3448 0046781 205.3709 154.5166 14.10931552261590

Live tracking on map

Real-time ground track for satellite METEOR 2-7.

In-orbit conjunctions

A list of the most updated potential collisions computed for object METEOR 2-7.

Target Orbit TCA Probability of collision Miss distance Type
FENGYUN 1C DEB SSO 2025-03-26 13:12:39 0.001554058 420.0 (m) DEBRIS
FENGYUN 1C DEB SSO 2025-01-23 19:32:51 0.001236894 69.0 (m) DEBRIS
DMSP 5D-2 F13 DEB SSO 2024-12-13 19:43:27 0.0001197502 518.0 (m) DEBRIS
CZ-6A DEB SSO 2024-11-21 20:00:23 0.0001529224 701.0 (m) DEBRIS
NOAA 16 DEB SSO 2024-11-13 00:48:38 0.0007767729 734.0 (m) DEBRIS

Associated space launch

Second generation soviet meteorological satellite

METEOR 2-7 was lifted into orbit during the mission ‘Vostok 8A92M | Meteor-2 7’, on board a Vostok 8A92M space rocket.

The launch took place on May 14, 1981, 9:45 p.m. from 43/3 (43L).

For more information about the launch, click the button.

Launch to space Vostok 8A92M | Meteor-2 7
Vostok 8A92M | Meteor-2 7

Agency: N/A

Status: Launch Successful

Launch date: May 14, 1981, 9:45 p.m. UTC

Rocket: Vostok 8A92M

Launch pad: 43/3 (43L)

Location: Plesetsk Cosmodrome, Russian Federation

...

Latest news about this satellite

There are no fresh news available about this satellite. Check back as we update our databases every day.


Newsletter sign-up

Weekly statistics, charts and insights to help you stay on top of the space industry.